Temperature
20 19 18 19 20 20 19 19 19 20 19 19 18 18 18 19 19 18 18 17 15 14 13 13 13 14 14 13 13 13 12 12 12 11 11 11 10 10 10 10 10 9 9 9
19 18 20 20 19 19 19 18 19 20 19 18 18 18 18 18 18 18 18 17 15 14 13 13 13 13 13 13 13 13 12 12 12 11 11 11 11 10 10 10 10 10 9 9
19 20 19 19 19 18 18 18 19 19 19 18 18 17 17 18 18 18 18 17 15 14 13 13 13 13 13 13 13 13 12 12 12 11 11 11 10 10 10 10 9 9 9 9
19 20 19 18 18 19 18 19 19 18 17 17 18 16 17 16 16 16 17 16 15 14 13 13 12 13 13 13 13 12 12 12 12 11 11 10 10 9 9 9 9 9 8 8
19 19 18 18 19 19 18 17 18 17 16 16 17 17 17 16 15 15 16 16 15 14 13 12 12 12 12 12 12 12 12 11 11 11 10 10 9 9 9 8 8 8 8 7
19 19 19 19 18 18 18 17 17 16 15 15 17 17 18 16 16 16 16 16 15 13 13 12 12 12 12 12 12 11 11 11 10 10 10 9 9 9 8 8 8 7 7 7
18 18 18 18 17 16 17 16 16 15 14 16 19 18 18 18 17 17 16 15 14 13 12 12 11 11 11 11 11 11 10 10 10 10 9 9 8 8 7 7 7 6 6 6
18 18 17 17 17 17 16 17 16 16 17 18 17 17 17 16 17 18 17 15 14 13 12 11 11 11 11 10 10 10 10 9 9 9 8 8 7 7 7 6 6 6 5 5
19 18 17 17 18 17 17 16 18 16 17 17 17 18 15 16 15 16 16 15 14 13 12 11 11 10 10 10 9 9 9 9 8 8 8 7 7 6 6 6 5 5 5 4
19 18 16 15 16 16 16 17 16 15 16 16 18 18 16 13 14 14 14 14 14 13 12 11 10 10 9 9 9 9 8 8 8 7 7 6 6 6 5 5 5 4 4 4
18 17 15 15 15 15 15 16 16 16 16 15 16 17 17 15 15 14 14 15 14 13 12 11 10 10 9 9 8 8 8 7 7 7 6 6 5 5 5 4 4 4 3 3
18 17 16 16 16 16 17 16 16 15 16 16 15 16 16 16 15 15 15 14 13 12 12 11 10 9 9 8 8 8 7 7 6 6 6 5 5 5 4 4 3 3 3 2
17 16 16 15 15 15 15 16 16 16 15 14 14 16 15 15 15 15 15 14 13 12 11 10 9 9 8 8 7 7 6 6 6 5 5 5 4 4 3 3 3 2 2 1
17 16 16 16 16 15 15 15 16 15 14 14 15 16 14 14 14 14 14 13 12 11 10 10 9 8 8 7 7 6 6 5 5 5 4 4 4 3 3 2 2 1 1 1
15 15 16 17 17 17 16 16 15 14 14 14 15 16 16 15 14 14 13 13 12 11 10 9 8 8 7 7 6 5 5 5 4 4 4 3 3 2 2 2 1 1 0 -0
14 15 16 15 16 16 15 15 15 15 15 15 15 15 15 15 15 14 13 12 11 10 9 8 8 7 6 6 5 5 5 4 4 3 3 3 2 2 1 1 1 0 -0 -1
14 14 14 13 15 14 13 14 14 14 15 15 14 14 13 13 13 13 12 11 11 9 8 8 7 6 6 5 5 4 4 4 3 3 2 2 1 1 1 0 -0 -1 -1 -1
14 14 13 12 13 11 14 15 15 15 15 15 14 13 13 12 12 12 11 11 10 9 8 7 6 6 5 5 4 4 3 3 2 2 2 1 1 0 -0 -0 -1 -1 -2 -2
11 13 12 11 11 12 14 13 13 13 13 14 13 12 12 11 10 10 10 9 9 8 7 6 6 5 4 4 4 3 3 2 2 1 1 1 0 -0 -1 -1 -2 -2 -2 -3
10 11 11 10 10 10 14 12 13 13 11 13 13 11 10 9 7 8 9 8 8 7 6 5 5 4 4 3 3 2 2 2 1 1 0 0 -0 -1 -1 -2 -2 -2 -3 -3
9 10 10 9 9 11 12 11 11 11 11 11 12 11 10 8 7 8 8 7 6 6 5 5 4 4 3 3 2 2 1 1 1 0 -0 -1 -1 -2 -2 -2 -3 -3 -3 -4
10 9 9 9 9 10 10 10 10 10 10 11 10 10 9 8 7 7 6 6 5 5 4 4 3 3 3 2 2 1 1 0 -0 -0 -1 -1 -2 -2 -3 -3 -3 -4 -4 -4
11 11 11 11 11 11 11 11 10 10 10 9 9 9 8 7 6 6 5 5 4 4 3 3 3 2 2 2 1 0 0 -0 -1 -1 -1 -2 -2 -3 -3 -4 -4 -4 -5 -5
11 11 11 11 11 11 11 10 10 9 9 8 8 8 7 6 6 5 4 4 4 3 3 2 2 2 1 1 0 0 -0 -1 -1 -2 -2 -3 -3 -3 -4 -4 -5 -5 -5 -5
11 9 9 10 10 10 10 9 9 8 8 7 7 6 6 5 5 4 4 3 3 2 2 2 1 1 1 0 -0 -0 -1 -2 -2 -2 -3 -3 -4 -4 -5 -5 -5 -5 -6 -6
10 9 9 9 10 9 9 9 8 7 7 6 6 5 5 5 4 3 3 3 2 2 1 1 1 0 0 -0 -1 -1 -2 -2 -3 -3 -3 -4 -4 -5 -5 -6 -6 -6 -6 -6
Wind_Speed
8 6 7 7 4 5 7 8 10 6 2 1 7 7 5 7 7 7 8 9 9 9 8 8 8 9 9 8 8 7 6 5 5 3 2 2 0 1 1 2 4 6 7 8
7 10 9 2 4 4 6 9 10 4 4 2 7 7 5 8 8 8 9 10 10 10 8 8 8 8 8 8 7 7 6 6 5 3 2 1 0 1 1 2 4 6 7 8
12 3 3 1 3 6 9 9 8 6 3 6 6 6 8 8 7 7 8 10 10 10 9 8 8 8 8 8 7 6 6 6 5 4 3 2 2 2 2 2 2 4 7 8
9 4 3 4 7 7 8 3 3 5 5 5 6 4 7 11 10 9 9 10 10 9 9 8 8 8 8 6 6 6 6 6 4 3 2 1 1 2 2 2 3 4 7 7
6 5 4 6 6 5 1 3 3 6 6 7 7 6 6 13 11 12 11 10 10 10 9 9 8 8 7 6 5 4 5 5 3 2 2 2 2 2 3 4 5 5 5 6
8 2 4 2 2 3 2 3 7 5 4 6 9 9 4 11 14 15 12 11 11 10 10 9 8 8 7 5 4 3 4 3 2 2 2 2 3 4 5 6 5 5 4 4
9 9 6 3 3 3 3 4 4 4 5 6 2 5 3 6 8 13 15 13 12 11 9 9 8 7 6 5 3 3 3 3 2 2 2 2 3 4 5 5 5 6 5 5
8 8 11 8 6 4 8 5 4 4 3 1 2 5 1 6 5 7 12 13 12 11 9 8 8 7 6 6 4 3 3 2 1 2 3 3 3 3 4 5 5 6 6 6
5 3 5 4 3 3 4 6 2 3 6 5 6 5 4 4 4 5 9 12 12 11 10 9 8 7 6 5 3 3 1 1 1 2 3 4 5 5 5 6 6 6 7 7
5 1 6 4 1 3 4 4 2 3 4 5 7 6 7 9 9 8 9 11 11 10 9 9 7 6 5 5 3 2 1 1 2 3 3 3 5 6 6 7 8 8 8 8
5 4 6 5 8 9 6 4 5 4 4 3 5 3 3 9 11 11 9 9 10 9 8 8 7 6 5 4 3 1 0 1 2 3 4 5 6 6 7 7 8 8 8 9
6 4 5 5 3 1 6 8 7 4 5 5 4 3 4 7 8 9 9 8 9 9 8 7 6 5 4 3 2 1 1 2 2 3 4 6 7 7 8 8 9 9 9 9
7 4 4 3 0 2 4 6 7 6 4 4 4 4 2 5 7 7 8 9 8 8 7 6 5 4 3 3 2 1 1 2 2 3 5 7 7 8 8 9 9 9 10 10
1 4 6 4 1 5 6 8 9 7 5 7 9 8 5 8 8 8 8 9 8 8 7 5 4 3 2 2 1 1 2 2 3 4 6 7 8 8 9 9 9 10 10 10
2 4 7 7 1 2 5 7 10 12 11 9 9 10 5 5 8 9 9 8 8 7 6 5 3 2 1 1 1 1 2 4 4 5 7 8 8 9 9 10 10 10 10 11
4 4 4 6 4 4 7 10 12 12 14 15 14 14 3 3 5 6 8 8 8 7 6 4 3 1 1 1 2 2 4 5 5 6 8 9 9 10 10 10 10 10 10 11
6 4 3 3 1 2 8 11 13 10 9 9 10 6 3 4 4 4 5 7 7 6 5 3 2 1 1 2 2 3 4 5 6 8 9 10 10 10 10 10 10 11 11 11
5 5 3 2 1 7 7 1 1 4 6 5 4 3 4 5 4 3 4 6 6 5 4 2 1 1 1 2 3 4 5 6 7 9 10 10 10 10 10 10 11 12 11 11
3 4 4 3 5 9 6 4 3 3 5 4 5 4 6 7 4 1 4 5 5 4 3 2 1 1 2 3 4 4 6 7 8 9 10 9 9 10 11 12 12 12 11 11
2 2 3 4 5 7 4 3 3 3 5 1 3 6 8 7 3 3 5 6 6 5 3 1 1 2 3 4 4 6 8 8 9 9 9 9 10 11 12 13 13 11 11 12
4 3 5 6 7 8 3 5 4 4 5 3 4 5 7 6 4 4 6 5 4 3 1 0 2 3 4 5 5 7 8 9 9 9 10 10 10 11 12 12 11 11 11 12
9 8 8 6 7 9 7 7 6 4 3 4 4 4 5 6 6 5 4 3 2 1 1 2 3 4 5 5 6 8 9 9 9 10 10 11 11 11 11 12 11 11 11 12
8 7 6 8 8 2 7 5 4 4 4 4 3 4 6 5 4 3 3 2 1 1 2 2 3 5 6 6 7 9 10 10 10 10 11 11 12 11 10 11 12 11 10 10
5 2 1 3 4 5 6 4 4 4 4 4 5 5 5 4 4 3 2 1 1 2 3 3 4 6 7 7 8 9 10 10 10 11 11 11 11 11 10 10 9 10 10 11
6 7 4 5 3 3 6 6 5 5 5 5 4 4 4 4 3 2 1 2 2 3 3 4 5 7 9 9 9 10 10 10 11 11 11 10 10 11 11 10 10 11 10 14
5 7 7 6 4 4 4 5 6 6 6 5 5 4 3 3 2 1 1 2 3 4 4 5 7 8 9 9 10 10 10 9 10 10 10 9 10 10 10 11 13 17 19 26
Wind_Direction
206 233 249 261 266 315 331 316 304 302 112 243 256 249 215 173 175 166 145 129 119 110 102 93 88 84 79 78 86 90 90 81 83 80 88 100 123 273 269 259 265 267 265 264
236 239 251 294 35 340 295 284 281 279 126 233 265 257 211 179 181 166 151 138 130 124 115 105 95 86 83 80 81 86 86 83 79 79 80 79 67 277 267 269 273 276 275 269
237 234 123 172 244 263 263 260 282 319 323 243 250 254 195 173 162 155 148 138 134 136 129 117 102 90 80 72 71 81 82 80 76 71 69 36 16 334 315 291 275 270 275 273
252 228 165 231 251 250 272 334 335 314 303 274 206 253 190 171 170 173 164 148 139 132 125 119 110 100 92 84 76 81 84 84 79 73 64 27 323 303 295 294 278 272 271 268
245 156 177 234 251 258 289 38 298 274 270 278 240 242 220 163 181 185 175 158 144 137 132 125 118 114 108 102 93 91 88 87 79 63 52 355 331 317 315 315 300 296 290 278
256 166 203 239 57 14 33 275 254 245 249 258 224 208 232 179 192 183 175 161 149 142 136 130 125 122 118 114 107 105 97 90 77 48 18 360 335 323 320 315 310 306 299 289
235 215 184 149 175 182 210 245 260 214 215 239 175 191 252 160 171 177 171 162 153 147 145 142 140 137 134 131 131 121 103 89 66 32 359 344 323 310 301 302 305 305 300 295
225 214 178 182 207 199 197 232 264 288 279 7 197 229 158 84 79 135 154 153 151 153 151 150 150 147 143 142 142 120 98 84 46 8 331 320 315 302 295 298 297 291 285 282
251 161 102 135 207 281 216 213 271 317 296 280 244 179 120 118 113 128 147 151 157 157 154 154 152 148 145 144 134 117 105 58 4 336 322 324 319 308 300 298 293 287 283 286
285 193 142 117 124 251 289 314 194 218 257 270 266 220 190 176 182 174 166 162 160 155 155 155 154 152 147 140 131 128 108 357 320 319 315 306 300 302 302 299 292 287 286 288
240 256 146 164 201 199 189 221 235 255 276 276 290 311 31 163 172 174 174 163 158 159 160 158 154 147 138 136 148 163 174 300 307 315 314 311 305 302 298 293 290 291 292 293
204 256 225 184 153 92 197 207 204 220 248 229 257 279 56 101 134 151 159 157 157 157 154 152 148 141 146 156 170 182 234 275 293 307 308 302 299 300 297 295 296 298 297 295
176 209 231 163 294 206 237 232 236 254 289 263 254 247 102 118 128 143 149 150 149 147 145 146 144 150 161 163 182 216 255 278 298 307 302 299 299 298 295 295 296 297 295 292
164 237 237 239 86 164 205 213 216 219 227 242 237 251 207 183 172 165 157 152 146 147 147 149 150 160 161 172 205 252 292 307 305 300 295 292 290 290 290 291 291 289 289 289
180 250 264 279 282 197 233 231 214 217 229 241 255 268 272 175 178 173 162 153 148 151 151 152 155 172 175 215 263 294 301 299 297 295 292 288 287 287 286 285 284 285 285 287
201 248 279 276 251 249 260 251 242 236 238 246 262 271 295 97 115 140 150 155 157 156 154 154 163 194 229 260 284 294 290 291 296 295 291 289 287 285 282 282 284 285 286 286
186 211 217 258 170 350 261 242 235 230 228 229 247 251 117 112 128 146 154 157 153 148 144 156 180 211 245 277 290 288 287 295 296 289 286 286 286 286 286 289 291 290 289 288
193 198 216 246 243 245 244 142 230 245 253 229 207 177 141 129 103 84 108 132 136 132 134 145 159 244 286 298 295 289 294 294 290 286 286 287 289 293 296 296 294 292 290 289
348 192 182 187 238 268 252 201 178 199 267 231 212 173 118 94 71 59 101 97 112 115 115 125 135 287 287 285 285 294 295 291 288 287 288 292 299 301 300 297 293 292 292 291
323 314 192 184 216 243 242 117 71 86 266 230 156 145 131 121 169 221 126 96 87 86 85 75 351 302 291 289 299 298 291 290 289 290 294 298 298 296 295 293 292 292 292 291
157 191 207 209 226 255 192 145 135 179 234 113 116 135 144 163 172 122 100 95 96 92 85 324 288 285 285 296 301 291 289 288 291 297 298 296 293 292 291 291 291 292 293 293
174 179 195 189 215 244 156 152 188 198 125 116 116 124 130 118 105 105 105 109 117 152 268 286 291 288 293 298 298 293 290 291 296 298 297 295 293 295 297 294 294 293 295 296
194 190 193 197 209 168 155 161 135 119 131 126 123 116 122 130 143 140 145 163 199 247 277 292 291 292 293 295 297 295 293 296 297 297 295 295 296 294 293 294 296 297 295 295
201 123 189 246 218 170 171 156 136 133 132 116 117 122 130 142 143 150 171 206 254 275 285 293 296 294 294 296 294 290 293 297 297 296 296 296 298 297 295 294 294 295 295 295
169 162 199 237 222 170 188 182 163 137 125 120 115 117 126 132 148 172 211 252 270 287 289 292 289 287 289 292 292 292 294 296 296 294 295 297 296 296 298 294 291 293 286 289
167 171 186 214 192 180 174 154 149 148 151 145 136 129 126 141 168 200 250 270 281 285 288 287 282 283 287 291 292 292 292 293 295 296 296 296 296 296 296 297 298 293 293 297
Height
1526 1529 1529 1524 1522 1523 1524 1526 1526 1520 1518 1520 1521 1520 1518 1518 1521 1523 1525 1528 1530 1531 1531 1531 1530 1530 1530 1530 1531 1531 1532 1534 1534 1535 1536 1536 1537 1537 1537 1536 1536 1535 1534 1533
1525 1527 1521 1519 1521 1523 1526 1528 1526 1519 1517 1519 1519 1517 1515 1515 1518 1520 1523 1526 1528 1530 1531 1531 1531 1531 1531 1531 1531 1532 1533 1533 1534 1535 1535 1535 1535 1535 1535 1534 1533 1532 1531 1530
1523 1520 1519 1520 1522 1525 1525 1526 1523 1522 1518 1517 1520 1519 1514 1513 1516 1519 1522 1524 1527 1529 1530 1531 1531 1531 1531 1531 1532 1533 1533 1533 1534 1534 1534 1534 1534 1534 1533 1532 1531 1529 1528 1526
1516 1514 1518 1520 1522 1522 1526 1519 1519 1521 1527 1525 1520 1529 1514 1512 1515 1517 1520 1523 1525 1528 1529 1530 1530 1531 1531 1532 1532 1533 1533 1533 1533 1533 1533 1533 1532 1531 1530 1529 1528 1526 1524 1522
1514 1514 1518 1521 1519 1518 1519 1520 1521 1522 1526 1528 1518 1524 1511 1509 1515 1515 1517 1520 1523 1526 1528 1529 1529 1530 1531 1532 1532 1533 1533 1533 1533 1532 1532 1531 1530 1529 1528 1526 1524 1522 1520 1518
1512 1512 1514 1516 1516 1518 1519 1521 1521 1523 1528 1533 1512 1518 1509 1506 1505 1508 1512 1516 1520 1524 1526 1527 1528 1529 1530 1531 1531 1532 1532 1532 1531 1531 1530 1529 1528 1526 1524 1522 1520 1518 1516 1514
1513 1511 1512 1514 1518 1520 1521 1528 1532 1534 1538 1526 1500 1506 1504 1494 1494 1499 1506 1512 1517 1521 1524 1525 1527 1528 1529 1529 1530 1530 1530 1530 1530 1529 1528 1526 1525 1523 1521 1518 1516 1513 1511 1508
1512 1512 1508 1511 1514 1516 1519 1521 1531 1533 1525 1513 1508 1509 1501 1494 1494 1497 1503 1509 1514 1519 1522 1524 1525 1526 1527 1528 1528 1528 1528 1528 1527 1526 1525 1523 1522 1519 1517 1515 1512 1509 1506 1503
1504 1509 1505 1507 1509 1512 1514 1518 1513 1522 1518 1519 1507 1499 1502 1496 1498 1499 1503 1507 1512 1516 1519 1521 1523 1524 1525 1526 1526 1526 1526 1525 1524 1523 1522 1520 1518 1516 1513 1510 1507 1504 1501 1498
1499 1504 1508 1510 1511 1512 1513 1512 1517 1524 1527 1526 1504 1497 1500 1502 1500 1500 1502 1506 1509 1513 1517 1519 1521 1522 1523 1524 1524 1524 1523 1523 1521 1520 1518 1516 1514 1511 1508 1505 1502 1499 1495 1492
1498 1505 1511 1512 1512 1511 1514 1514 1514 1515 1513 1523 1521 1505 1491 1491 1493 1497 1500 1504 1508 1511 1514 1517 1519 1520 1521 1521 1521 1521 1520 1519 1518 1516 1514 1512 1509 1506 1503 1500 1496 1493 1489 1486
1496 1501 1506 1505 1501 1502 1503 1506 1510 1520 1515 1511 1517 1509 1489 1489 1491 1494 1499 1502 1506 1510 1512 1515 1516 1517 1518 1518 1518 1518 1517 1516 1514 1512 1510 1507 1504 1501 1498 1494 1491 1487 1483 1479
1495 1501 1508 1510 1511 1507 1505 1502 1502 1505 1510 1513 1517 1507 1493 1491 1492 1494 1497 1501 1504 1507 1510 1512 1514 1515 1515 1516 1515 1514 1513 1512 1510 1507 1505 1502 1499 1495 1492 1488 1484 1480 1476 1471
1492 1497 1501 1503 1501 1500 1503 1501 1501 1505 1512 1510 1504 1496 1494 1492 1492 1494 1497 1499 1502 1505 1508 1510 1511 1512 1513 1512 1512 1511 1509 1508 1505 1502 1499 1496 1493 1489 1485 1481 1477 1473 1469 1464
1493 1497 1493 1491 1490 1492 1494 1496 1497 1501 1500 1503 1494 1490 1486 1487 1489 1491 1494 1497 1500 1503 1505 1507 1509 1509 1510 1509 1508 1507 1505 1503 1500 1497 1494 1491 1487 1483 1479 1474 1470 1466 1461 1457
1492 1495 1492 1493 1490 1491 1494 1492 1492 1492 1491 1491 1489 1487 1483 1484 1487 1489 1492 1495 1497 1500 1503 1505 1506 1506 1506 1505 1504 1502 1500 1498 1495 1492 1488 1485 1481 1476 1472 1468 1463 1459 1454 1449
1491 1494 1496 1499 1492 1494 1499 1486 1484 1485 1481 1483 1487 1485 1484 1485 1487 1489 1491 1493 1495 1498 1500 1501 1502 1503 1502 1501 1500 1498 1496 1493 1490 1486 1483 1479 1475 1470 1466 1461 1456 1451 1446 1441
1488 1491 1496 1499 1497 1509 1486 1476 1476 1476 1476 1476 1478 1480 1482 1484 1487 1488 1490 1491 1493 1495 1497 1498 1499 1499 1498 1497 1495 1493 1491 1488 1484 1481 1477 1473 1469 1464 1459 1454 1449 1444 1439 1434
1487 1489 1496 1502 1502 1493 1479 1476 1476 1478 1478 1474 1476 1478 1481 1483 1486 1488 1489 1490 1492 1493 1495 1495 1495 1495 1494 1493 1491 1488 1485 1482 1479 1475 1471 1467 1463 1457 1452 1447 1441 1436 1431 1425
1488 1488 1494 1499 1503 1501 1478 1477 1475 1478 1482 1473 1474 1477 1480 1483 1490 1488 1487 1488 1490 1491 1492 1492 1492 1491 1490 1488 1486 1483 1480 1476 1473 1469 1465 1461 1456 1450 1445 1439 1434 1429 1423 1417
1491 1492 1495 1497 1498 1487 1475 1475 1477 1486 1480 1475 1474 1476 1479 1482 1485 1486 1486 1487 1488 1488 1489 1489 1488 1487 1485 1483 1481 1477 1474 1471 1467 1463 1458 1454 1449 1443 1438 1432 1427 1421 1415 1410
1483 1489 1490 1491 1494 1487 1473 1474 1477 1475 1474 1474 1475 1476 1478 1481 1482 1483 1484 1485 1485 1486 1486 1485 1484 1482 1481 1479 1476 1472 1468 1465 1460 1456 1451 1446 1441 1436 1430 1424 1419 1414 1408 1402
1470 1472 1473 1475 1475 1468 1468 1469 1470 1471 1472 1473 1474 1476 1477 1479 1480 1481 1482 1483 1483 1483 1482 1481 1480 1477 1476 1473 1470 1466 1462 1458 1453 1448 1443 1438 1433 1428 1423 1417 1411 1406 1401 1395
1465 1465 1466 1468 1466 1465 1467 1468 1469 1470 1471 1472 1473 1474 1476 1477 1478 1479 1480 1480 1480 1479 1478 1477 1475 1472 1470 1467 1464 1460 1456 1451 1446 1441 1436 1430 1425 1419 1414 1410 1404 1399 1393 1387
1458 1463 1465 1465 1463 1463 1464 1465 1467 1468 1469 1470 1471 1473 1474 1475 1476 1476 1477 1477 1476 1475 1474 1472 1470 1467 1464 1461 1457 1453 1449 1444 1439 1434 1428 1423 1417 1412 1406 1401 1397 1391 1386 1382
1455 1459 1462 1461 1458 1460 1461 1462 1464 1466 1467 1468 1469 1470 1472 1473 1473 1473 1473 1473 1472 1471 1469 1467 1464 1461 1457 1454 1450 1446 1443 1438 1432 1426 1420 1415 1410 1404 1399 1393 1387 1382 1379 1373